Regional Weather Roundup
Issued by NWS

Home | Current Version | Previous Version | Text Only | Print | Product List | Glossary On
Versions: 1 2 3 4 5 6 7 8 9 10 11 12 13 14 15 16 17 18 19 20 21 22 23 24 25 26 27 28 29 30 31 32 33 34 35 36 37 38 39 40 41 42 43 44 45 46 47 48 49 50
000
ASUS44 KOUN 031610
RWROK

WEATHER ROUNDUP FOR OKLAHOMA
NATIONAL WEATHER SERVICE NORMAN OK
1000 AM CST TUE MAR 03 2015

NOTE: "FAIR" INDICATES FEW OR NO CLOUDS BELOW 12,000 FEET WITH NO
      SIGNIFICANT WEATHER AND/OR OBSTRUCTIONS TO VISIBILITY.

OKZ001>007-009>012-014-015-017-031700-
NORTHWEST OKLAHOMA AND THE PANHANDLE

CITY           SKY/WX    TMP DP  RH WIND       PRES   REMARKS
GAGE           CLOUDY    48  39  71 S9        29.84R
GUYMON         CLOUDY    48  34  58 SW15      29.80
ENID/WOODRING  CLOUDY    43  39  87 S21G29    29.83F
$$

OKZ016-021>023-033>039-044-045-031700-
SOUTHWEST OKLAHOMA

CITY           SKY/WX    TMP DP  RH WIND       PRES   REMARKS
LAWTON/REGL    CLOUDY    42  40  92 S12       29.97R FOG
LAWTON/FT SILL CLOUDY    42  42  99 S13       29.94S
FREDERICK      CLOUDY    43  40  89 S12       29.93S FOG
CLINTON        CLOUDY    44  38  79 SW15      29.90S
HOBART         PTSUNNY   44  39  82 SW20      29.90F
ALTUS AFB      MOSUNNY   46  43  88 S10       29.92F
$$

OKZ018>020-024>031-031700-
CENTRAL OKLAHOMA

CITY           SKY/WX    TMP DP  RH WIND       PRES   REMARKS
OKLAHOMA CITY  PTSUNNY   48  41  76 S18G24    29.92R
OKC/WILEY POST CLOUDY    47  40  76 SW21G29   29.90S
OKC/TINKER AFB CLOUDY    44  43  95 S20       29.91F
STILLWATER     CLOUDY    48  40  73 SW17G23   29.88R
GUTHRIE        CLOUDY    47  40  76 SW13      29.89S
$$

OKZ008-013-054>072-031700-
NORTHEAST OKLAHOMA

CITY           SKY/WX    TMP DP  RH WIND       PRES   REMARKS
TULSA          CLOUDY    43  41  93 S15G21    29.91S
TULSA/JONES    CLOUDY    43  41  93 S13       29.93S
PONCA CITY     CLOUDY    44  39  82 SW15G25   29.83F
BARTLESVILLE   CLOUDY    45  41  86 S16G24    29.88S
MUSKOGEE       CLOUDY    42  40  92 S12       29.98S
$$

OKZ032-040>043-046>053-073>077-031700-
SOUTH CENTRAL/SOUTHEAST OKLAHOMA

CITY           SKY/WX    TMP DP  RH WIND       PRES   REMARKS
ARDMORE/DWNTWN CLOUDY    41  41 100 CALM      30.02R FOG
MCALESTER      FOG       41  40  96 S7        30.00F VSB 3/4
$$



USA.gov is the U.S. government's official web portal to all federal, state and local government web resources and services.